Perrysburg FD, NY #14155

Ready Power 15Kw Stand By Generator

Bidding is closed.
High Bid:$1,875.00
NA
Bidding Ended: Wed, May 30  6:10:00 pm ET
High Bidder: paulbartlett192
Bid Increment: $25.00
Starting Bid: $10.00
Item Location: 12006 Main Street, Perrysburg, Cattaraugus, NY 14129
Item has been viewed 1,990 times.

Up For Bid is this Ready Power 15Kw Stand By Generator

It is a model #CD157A18, Serial #R-11513

It has a Continental four cylinder diesel engine

This generator is rated:

15Kw, KVA 18.75, 120/208V, 14.6 AMPS, 3Ph, 4 Wire, 1800 RPM 

The Control Unit is a #CD157A18, 12 Volt DC type

The generator comes with a wall mounted electrical disconnect switch and remote diesel storage tank with stand (approximately 20 gallon)

This generator is in very good functional condition.

Sold AS IS

Good Luck Bidding

***Please review all Auction terms at left side of auction before bidding***

Terms of Sale:
All sales are final. No refunds will be issued. This item is being sold as is, where is, with no warranty, expressed written or implied. The seller shall not be responsible for the correct description, authenticity, genuineness, or defects herein, and makes no warranty in connection therewith. No allowance or set aside will be made on account of any incorrectness, imperfection, defect or damage. Any descriptions or representations are for identification purposes only and are not to be construed as a warranty of any type. It is the responsibility of the buyer to have thoroughly inspected this item and to have satisfied himself or herself as to the condition and value and to bid based upon that judgment solely. The seller shall and will make every reasonable effort to disclose any known defects associated with this item at the buyer request prior to the close of sale. Seller assumes no responsibility for any repairs regardless of any oral statements about the item. Seller is NOT responsible for providing tools or heavy equipment to aid in removal. Items left on seller premises after this removal deadline will revert back to possession of the seller, with no refund.


Click on any picture to see a larger image.
Bid Date Bid Amount Bidder
May 30, 2018 - 4:40:46 PM $1,875.00 ipaulbartlett192
May 30, 2018 - 4:40:46 PM $1,850.00 ide123
May 30, 2018 - 4:37:57 PM $1,525.00 ide123
May 30, 2018 - 4:37:57 PM $1,500.00 ipaulbartlett192
May 30, 2018 - 4:37:47 PM $1,325.00 ide123
May 30, 2018 - 4:37:47 PM $1,300.00 ipaulbartlett192
May 24, 2018 - 9:50:41 PM $1,275.00 ide123
May 24, 2018 - 9:50:41 PM $1,250.00 iepageot
May 22, 2018 - 4:32:33 PM $1,225.00 iepageot
May 17, 2018 - 7:48:43 PM $1,200.00 igracewood
May 17, 2018 - 7:48:43 PM $1,175.00 ide123
May 17, 2018 - 7:48:14 PM $890.00 igracewood
May 17, 2018 - 7:48:14 PM $880.00 ide123
May 16, 2018 - 8:12:42 AM $770.00 igracewood
May 16, 2018 - 8:12:42 AM $760.00 ifherczman
May 16, 2018 - 8:12:34 AM $750.00 igracewood
May 16, 2018 - 8:12:34 AM $740.00 ifherczman
May 16, 2018 - 8:12:29 AM $730.00 igracewood
May 16, 2018 - 8:12:29 AM $720.00 ifherczman
May 16, 2018 - 8:12:23 AM $710.00 igracewood
May 16, 2018 - 8:12:23 AM $700.00 ifherczman
May 16, 2018 - 8:12:19 AM $690.00 igracewood
May 16, 2018 - 8:12:19 AM $680.00 ifherczman
May 16, 2018 - 8:12:14 AM $670.00 igracewood
May 16, 2018 - 8:12:14 AM $660.00 ifherczman
May 16, 2018 - 8:12:08 AM $650.00 igracewood
May 16, 2018 - 8:12:08 AM $640.00 ifherczman
May 16, 2018 - 8:12:01 AM $630.00 igracewood
May 16, 2018 - 8:12:01 AM $620.00 ifherczman
May 16, 2018 - 8:11:57 AM $610.00 igracewood
May 16, 2018 - 8:11:57 AM $600.00 ifherczman
May 16, 2018 - 8:11:53 AM $590.00 igracewood
May 16, 2018 - 8:11:53 AM $580.00 ifherczman
May 16, 2018 - 8:11:47 AM $570.00 igracewood
May 16, 2018 - 8:11:47 AM $560.00 ifherczman
May 16, 2018 - 8:11:42 AM $550.00 igracewood
May 16, 2018 - 8:11:42 AM $540.00 ifherczman
May 16, 2018 - 8:11:38 AM $530.00 igracewood
May 16, 2018 - 8:11:38 AM $520.00 ifherczman
May 15, 2018 - 7:57:39 PM $510.00 igracewood
May 15, 2018 - 7:57:39 PM $500.00 iMamace85
May 15, 2018 - 6:10:32 PM $410.00 iMamace85
May 15, 2018 - 6:10:32 PM $400.00 ifherczman
May 15, 2018 - 6:05:11 PM $260.00 ifherczman
May 15, 2018 - 6:05:11 PM $250.00 idonnansteve
May 15, 2018 - 10:47:26 AM $10.00 ifherczman